Weather reports worldwide

Advertisment
Trier-Petrisberg, Germany (10609): temperature & dewpoint: 13.07.2018 13:00:00 - 19.07.2018 13:00:00 (CEST)Trier-Petrisberg, Germany (10609): temperature 5cm & temperature -5cm: 13.07.2018 13:00:00 - 19.07.2018 13:00:00 (CEST)Trier-Petrisberg, Germany (10609): temperature -20cm & temperature -100cm: 13.07.2018 13:00:00 - 19.07.2018 13:00:00 (CEST)Trier-Petrisberg, Germany (10609): wind speed & gusts: 13.07.2018 13:00:00 - 19.07.2018 13:00:00 (CEST)Trier-Petrisberg, Germany (10609): wind direction: 13.07.2018 13:00:00 - 19.07.2018 13:00:00 (CEST)Trier-Petrisberg, Germany (10609): reduced air pressure: 13.07.2018 13:00:00 - 19.07.2018 13:00:00 (CEST)Trier-Petrisberg, Germany (10609): visibility: 13.07.2018 13:00:00 - 19.07.2018 13:00:00 (CEST)Trier-Petrisberg, Germany (10609): sunshine duration: 13.07.2018 13:00:00 - 19.07.2018 13:00:00 (CEST)Trier-Petrisberg, Germany (10609): precipitation: 13.07.2018 13:00:00 - 19.07.2018 13:00:00 (CEST)
Date & Time tt [°C] td [°C] tt 5cm [°C] tt -5cm [°C] tt -20cm [°C] tt -100cm [°C] ff [km/h] ff [kn] fx [km/h] fx [kn] dd ppp [hPa] vv [km] sd [min] rr [mm]
19.07.2018 13:00:00 - - - - 25,2 22,9 - - 23 13 - - 61 60 0,0
19.07.2018 12:00:00 26,1 7,7 31,5 30,3 24,8 22,9 8 4 17 9 N 1017,3 55 60 0,0
19.07.2018 11:00:00 23,1 10,0 27,5 27,2 24,5 22,9 7 4 18 10 N 1017,7 50 60 0,0
19.07.2018 10:00:00 20,6 9,9 22,8 24,1 24,6 22,9 10 5 21 11 NNE 1018,3 43 60 0,0
19.07.2018 09:00:00 17,9 9,9 18,8 21,6 24,8 22,9 9 5 19 10 NNE 1018,6 40 60 0,0
19.07.2018 08:00:00 15,3 10,3 14,5 20,7 25,1 22,9 8 4 14 8 NNE 1018,8 39 60 0,0
19.07.2018 07:00:00 13,0 10,0 12,5 20,8 25,5 22,9 7 4 16 8 NNE 1018,7 38 33 0,0
19.07.2018 06:00:00 13,2 10,0 11,2 21,3 25,9 22,8 10 5 13 7 NNE 1018,7 45 0 0,0
19.07.2018 05:00:00 14,0 10,2 11,8 22,0 26,3 22,8 8 4 13 7 NNE 1018,6 51 0 0,0
19.07.2018 04:00:00 15,1 10,3 13,7 22,7 26,7 22,8 9 5 14 8 N 1018,6 54 0 0,0
19.07.2018 03:00:00 16,2 9,7 14,0 23,4 27,1 22,8 9 5 12 6 N 1018,5 59 0 0,0
19.07.2018 02:00:00 17,3 9,8 14,4 24,3 27,5 22,8 10 5 14 7 N 1018,2 59 0 0,0
19.07.2018 01:00:00 17,6 9,8 15,7 25,3 28,0 22,7 10 5 15 8 N 1018,2 62 0 0,0
19.07.2018 00:00:00 19,3 9,4 16,2 26,5 28,4 22,7 10 5 18 10 NNE 1017,6 64 0 0,0
18.07.2018 23:00:00 20,8 9,2 18,9 27,9 28,8 22,7 14 7 20 11 NNE 1017,3 70 0 0,0
18.07.2018 22:00:00 22,0 8,3 20,5 29,8 29,0 22,7 11 6 17 9 N 1016,8 70 24 0,0
18.07.2018 21:00:00 24,4 7,4 24,0 32,1 29,1 22,7 8 4 16 9 N 1016,3 70 60 0,0
18.07.2018 20:00:00 26,2 7,2 28,3 34,0 29,0 22,7 8 4 23 12 N 1016,0 70 59 0,0
18.07.2018 19:00:00 25,9 7,3 29,1 35,6 28,7 22,7 8 4 19 10 N 1016,0 70 42 0,0
18.07.2018 18:00:00 27,3 7,4 32,5 36,8 28,3 22,7 9 5 21 12 WNW 1016,2 65 60 0,0
18.07.2018 17:00:00 27,2 7,6 33,2 35,3 27,9 22,7 10 5 24 13 N 1016,6 70 28 0,0
18.07.2018 16:00:00 26,5 7,3 31,1 36,4 27,3 22,7 9 5 23 12 NNW 1017,0 70 28 0,0
18.07.2018 15:00:00 26,7 6,8 34,3 36,6 26,6 22,7 10 5 22 12 WSW 1017,1 60 54 0,0
18.07.2018 14:00:00 26,5 7,6 33,2 35,4 25,9 22,8 11 6 24 13 NW 1017,3 64 49 0,0
18.07.2018 13:00:00 25,0 7,4 29,7 33,6 25,3 22,8 6 3 24 13 NNW 1017,6 68 54 0,0
18.07.2018 12:00:00 23,8 8,3 29,7 30,6 24,9 22,7 7 4 21 11 N 1018,2 65 60 0,0
18.07.2018 11:00:00 22,8 8,0 26,4 27,6 24,6 22,7 6 4 16 9 N 1018,5 65 60 0,0
18.07.2018 10:00:00 21,5 10,6 24,0 24,6 24,6 22,7 6 3 13 7 N 1018,7 53 60 0,0
18.07.2018 09:00:00 18,7 11,6 19,7 22,1 24,8 22,7 9 5 15 8 N 1018,7 45 60 0,0
18.07.2018 08:00:00 16,8 12,0 15,5 21,2 25,1 22,7 6 4 12 6 NNE 1018,8 46 60 0,0
18.07.2018 07:00:00 14,9 11,2 13,5 21,3 25,5 22,7 9 5 11 6 NNE 1019,0 51 41 0,0
18.07.2018 06:00:00 14,6 11,0 12,0 22,0 25,8 22,7 7 4 11 6 N 1018,7 50 0 0,0
18.07.2018 05:00:00 15,9 11,4 14,2 22,5 26,2 22,6 9 5 15 8 NNE 1018,7 56 0 0,0
18.07.2018 04:00:00 16,6 11,4 15,2 23,1 26,6 22,6 11 6 19 10 N 1018,6 70 0 0,0
18.07.2018 03:00:00 16,9 11,7 14,5 24,0 27,0 22,6 9 5 15 8 NNE 1018,4 70 0 0,0
18.07.2018 02:00:00 18,6 11,3 15,5 24,9 27,3 22,6 6 3 16 9 N 1018,0 70 0 0,0
18.07.2018 01:00:00 19,4 12,1 17,0 26,1 27,7 22,6 7 4 14 8 N 1017,9 60 0 0,0
18.07.2018 00:00:00 21,4 12,9 20,4 27,1 28,0 22,6 5 3 11 6 NNW 1017,5 63 0 0,0
17.07.2018 23:00:00 22,0 13,1 21,2 28,0 28,3 22,6 5 3 13 7 N 1016,9 65 0 0,0
17.07.2018 22:00:00 23,0 12,6 22,0 29,5 28,5 22,5 6 3 17 9 NW 1016,2 67 9 0,0
17.07.2018 21:00:00 24,6 12,7 24,4 31,4 28,6 22,5 7 4 27 15 WNW 1015,3 65 37 0,0
17.07.2018 20:00:00 26,4 10,6 27,9 33,2 28,5 22,5 14 8 31 17 W 1014,6 69 57 0,0
17.07.2018 19:00:00 27,0 10,7 29,8 34,3 28,2 22,5 16 9 31 17 W 1014,3 70 48 0,0
17.07.2018 18:00:00 27,6 10,8 30,2 35,0 27,9 22,6 12 7 34 18 W 1014,2 70 45 0,0
17.07.2018 17:00:00 28,2 10,4 33,2 34,9 27,5 22,6 12 7 27 14 W 1014,3 70 34 0,0
17.07.2018 16:00:00 27,1 9,6 29,4 35,0 27,0 22,6 14 8 29 16 W 1014,3 70 26 0,0
17.07.2018 15:00:00 28,6 9,6 34,9 34,9 26,5 22,6 14 8 30 16 W 1014,2 70 41 0,0
17.07.2018 14:00:00 28,6 9,7 32,7 34,0 25,9 22,6 9 5 27 15 WSW 1014,1 65 36 0,0
17.07.2018 13:00:00 27,9 9,4 33,3 33,5 25,3 22,6 13 7 30 16 WSW 1014,3 70 58 0,0
17.07.2018 12:00:00 26,6 10,6 31,2 30,8 24,8 22,6 8 5 14 8 SSW 1014,6 61 60 0,0
17.07.2018 11:00:00 24,3 11,2 28,2 27,5 24,6 22,5 6 3 10 6 SSW 1014,8 64 60 0,0
17.07.2018 10:00:00 21,5 11,3 23,2 24,7 24,6 22,5 4 2 9 5 SE 1014,9 52 59 0,0
17.07.2018 09:00:00 19,0 11,5 20,2 22,7 24,7 22,5 4 2 8 4 SSW 1015,0 45 57 0,0
17.07.2018 08:00:00 16,0 12,7 16,0 21,8 25,0 22,5 3 2 7 4 ESE 1015,2 32 35 0,0
17.07.2018 07:00:00 14,5 11,8 14,7 21,3 25,4 22,5 5 3 8 5 WSW 1015,1 37 24 0,0
17.07.2018 06:00:00 15,0 11,4 14,0 21,7 25,7 22,5 9 5 11 6 N 1014,1 46 0 0,0
17.07.2018 05:00:00 15,0 11,9 13,1 22,3 26,1 22,4 3 2 13 7 E 1014,0 56 0 0,0
17.07.2018 04:00:00 15,8 12,1 13,5 23,0 26,5 22,4 6 3 8 5 N 1013,8 46 0 0,0
17.07.2018 03:00:00 16,4 12,1 14,2 23,8 27,0 22,4 2 1 6 4 SSE 1013,8 47 0 0,0
17.07.2018 02:00:00 17,6 12,5 15,4 24,7 27,4 22,4 5 3 7 4 W 1013,8 51 0 0,0
17.07.2018 01:00:00 18,1 11,4 16,0 25,7 27,8 22,4 4 2 9 5 S 1013,7 56 0 0,0
17.07.2018 00:00:00 19,7 11,7 17,4 26,9 28,2 22,3 6 3 7 4 ENE 1013,3 61 0 0,0
16.07.2018 23:00:00 22,0 11,3 18,2 28,5 28,5 22,3 2 1 9 5 WSW 1012,6 59 0 0,0
16.07.2018 22:00:00 22,9 12,0 20,0 30,5 28,7 22,3 7 4 14 7 SSE 1011,8 57 23 0,0
16.07.2018 21:00:00 25,2 11,7 25,5 32,9 28,8 22,3 6 3 21 11 SE 1011,1 62 60 0,0
16.07.2018 20:00:00 27,1 11,0 29,0 35,0 28,6 22,4 13 7 21 11 SE 1010,4 63 60 0,0
16.07.2018 19:00:00 28,2 10,5 32,3 36,5 28,2 22,4 10 5 22 12 ESE 1010,0 70 60 0,0
16.07.2018 18:00:00 29,6 7,6 34,9 36,9 27,7 22,4 9 5 22 12 NNE 1010,1 70 40 0,0
16.07.2018 17:00:00 29,9 7,7 34,9 37,7 27,0 22,4 12 7 23 12 NNW 1010,1 68 60 0,0
16.07.2018 16:00:00 29,8 9,1 35,3 36,6 26,4 22,4 10 5 19 11 SW 1010,5 70 59 0,0
16.07.2018 15:00:00 28,1 8,5 33,1 34,8 25,6 22,4 7 4 19 10 WNW 1011,1 69 27 0,0
16.07.2018 14:00:00 29,7 9,1 36,3 35,3 24,9 22,5 6 3 14 8 SSW 1011,6 51 60 0,0
16.07.2018 13:00:00 26,7 10,6 33,2 32,7 24,2 22,5 6 3 15 8 WNW 1012,2 54 60 0,0
16.07.2018 12:00:00 25,7 12,8 30,9 29,7 23,7 22,5 8 4 14 7 WSW 1012,8 56 60 0,0
16.07.2018 11:00:00 23,6 12,2 27,2 26,6 23,4 22,5 6 4 14 7 SSW 1013,2 58 60 0,0
16.07.2018 10:00:00 20,6 12,4 23,1 23,7 23,3 22,5 5 3 9 5 WSW 1013,7 50 60 0,0
16.07.2018 09:00:00 18,2 12,5 19,4 21,3 23,4 22,5 4 2 6 3 W 1014,3 43 59 0,0
16.07.2018 08:00:00 16,3 13,0 16,0 20,4 23,6 22,5 2 1 6 3 SW 1014,6 38 45 0,0
16.07.2018 07:00:00 14,6 11,9 15,1 20,0 23,9 22,5 3 1 7 4 E 1014,9 44 23 0,0
16.07.2018 06:00:00 14,3 12,2 13,9 20,2 24,2 22,5 1 1 7 4 S 1014,8 42 0 0,0
16.07.2018 05:00:00 14,7 12,2 14,7 20,4 24,5 22,5 5 3 9 5 S 1014,8 48 0 0,0
16.07.2018 04:00:00 14,8 11,5 14,1 20,7 24,8 22,5 5 3 11 6 SSE 1015,0 70 0 0,0
16.07.2018 03:00:00 14,9 13,1 14,0 21,0 25,2 22,5 8 4 11 6 SSW 1015,2 41 0 0,0
16.07.2018 02:00:00 15,2 11,5 13,5 21,6 25,5 22,4 8 4 10 5 E 1015,2 55 0 0,0
16.07.2018 01:00:00 16,4 11,7 14,2 22,5 25,9 22,4 5 3 7 4 E 1015,3 54 0 0,0
16.07.2018 00:00:00 17,5 11,8 15,8 23,4 26,3 22,4 4 2 7 4 NE 1015,3 57 0 0,0
15.07.2018 23:00:00 19,2 11,5 16,7 24,4 26,6 22,4 7 4 14 8 E 1014,8 62 0 0,0
15.07.2018 22:00:00 20,0 12,0 18,4 26,0 26,8 22,4 12 7 23 12 SE 1014,5 61 11 0,0
15.07.2018 21:00:00 21,7 11,4 21,9 27,5 27,0 22,4 12 7 29 16 S 1013,9 68 37 0,0
15.07.2018 20:00:00 23,3 12,7 24,3 28,0 27,1 22,4 11 6 16 9 SSE 1013,6 58 23 0,0
15.07.2018 19:00:00 23,3 13,1 23,8 28,0 27,3 22,4 10 5 16 8 NE 1013,7 56 0 0,0
15.07.2018 18:00:00 23,0 14,1 22,6 28,8 27,4 22,4 5 3 19 11 NNW 1013,7 54 0 0,0
15.07.2018 17:00:00 23,7 13,4 22,4 30,4 27,4 22,4 13 7 21 11 N 1014,0 55 4 0,1
15.07.2018 16:00:00 21,0 15,8 21,2 32,5 27,1 22,4 8 4 15 8 S 1013,7 29 0 1,2
15.07.2018 15:00:00 27,3 10,5 31,5 36,4 26,4 22,4 7 4 21 11 NNE 1013,7 55 45 0,0
15.07.2018 14:00:00 28,4 11,7 34,9 34,5 25,8 22,4 8 4 22 12 NNE 1013,9 54 60 0,0
15.07.2018 13:00:00 26,6 11,0 31,5 32,0 25,3 22,4 9 5 19 11 NNE 1015,1 53 57 0,0
15.07.2018 12:00:00 26,1 12,4 29,5 30,3 24,9 22,4 11 6 26 14 NNE 1015,5 46 59 0,0
15.07.2018 11:00:00 24,0 13,0 27,7 27,3 24,7 22,4 10 6 18 10 NNE 1016,0 44 60 0,0
15.07.2018 10:00:00 21,3 12,8 24,0 24,6 24,8 22,4 10 5 19 11 NNE 1016,4 39 60 0,0
15.07.2018 09:00:00 19,9 14,0 20,4 22,8 25,0 22,3 7 4 15 8 ENE 1016,6 33 35 0,0
15.07.2018 08:00:00 16,7 13,4 16,3 22,4 25,2 22,3 3 2 17 9 ENE 1016,9 29 1 0,2
15.07.2018 07:00:00 17,0 11,9 17,4 22,5 25,5 22,3 4 2 6 3 N 1017,0 40 0 0,0
15.07.2018 06:00:00 16,4 11,7 16,5 22,6 25,8 22,3 4 2 23 13 N 1016,9 37 0 0,0
15.07.2018 05:00:00 17,1 11,7 16,9 22,9 26,1 22,2 13 7 21 11 NNE 1016,8 40 0 0,0
15.07.2018 04:00:00 17,1 11,5 15,7 23,4 26,5 22,2 13 7 21 11 NNE 1016,9 43 0 0,0
15.07.2018 03:00:00 17,8 11,9 15,9 24,0 26,9 22,2 13 7 17 9 NNE 1017,0 43 0 0,0
15.07.2018 02:00:00 18,5 12,1 16,2 24,9 27,3 22,2 11 6 18 10 NNE 1017,4 43 0 0,0
15.07.2018 01:00:00 19,5 12,3 17,5 25,8 27,7 22,2 12 7 20 11 NNE 1017,4 41 0 0,0
15.07.2018 00:00:00 20,8 12,3 19,3 26,9 28,1 22,1 12 6 21 11 NNE 1017,1 45 0 0,0
14.07.2018 23:00:00 21,7 12,4 20,0 28,2 28,4 22,1 13 7 20 11 NNE 1017,1 48 0 0,0
14.07.2018 22:00:00 22,9 12,2 21,7 29,9 28,6 22,1 11 6 26 14 NNE 1016,6 47 9 0,0
14.07.2018 21:00:00 25,1 11,9 24,7 32,1 28,7 22,1 17 9 28 15 NNE 1015,8 51 60 0,0
14.07.2018 20:00:00 26,9 11,0 28,9 34,0 28,6 22,1 13 7 25 13 N 1015,5 66 48 0,0
14.07.2018 19:00:00 28,3 9,3 31,6 35,6 28,4 22,1 8 4 25 13 N 1015,5 63 59 0,0
14.07.2018 18:00:00 28,3 9,4 32,1 35,8 28,1 22,1 7 4 19 10 NW 1015,7 65 26 0,0
14.07.2018 17:00:00 29,2 9,4 35,4 36,0 27,6 22,1 6 4 15 8 N 1015,8 63 21 0,0
14.07.2018 16:00:00 27,4 8,6 30,1 38,5 26,9 22,1 7 4 17 9 NW 1016,6 63 39 0,0
14.07.2018 15:00:00 29,5 9,2 37,3 37,6 26,1 22,1 8 4 18 10 SSW 1016,7 53 60 0,0
14.07.2018 14:00:00 28,5 8,8 34,8 35,7 25,4 22,1 6 4 22 12 E 1017,4 57 60 0,0
14.07.2018 13:00:00 27,0 8,5 33,5 33,4 24,8 22,1 7 4 23 12 N 1018,0 53 60 0,0
14.07.2018 12:00:00 25,7 9,8 30,1 30,7 24,3 22,1 10 5 20 11 NNE 1018,7 57 60 0,0
14.07.2018 11:00:00 24,7 12,6 28,2 27,7 24,1 22,1 8 5 16 9 N 1019,1 50 60 0,0
14.07.2018 10:00:00 21,0 13,7 23,7 24,6 24,0 22,1 8 4 14 7 N 1019,6 38 32 0,0
14.07.2018 09:00:00 18,6 13,2 20,4 22,9 24,1 22,1 4 2 13 7 N 1019,9 35 52 0,0
14.07.2018 08:00:00 16,1 13,0 16,3 21,6 24,4 22,1 9 5 14 8 NNE 1019,8 30 8 0,0
14.07.2018 07:00:00 15,8 13,0 16,3 21,3 24,7 22,0 5 3 13 7 N 1019,9 32 0 0,0
14.07.2018 06:00:00 14,7 12,7 14,3 21,4 25,0 22,0 8 4 14 7 N 1019,8 28 0 0,0
14.07.2018 05:00:00 15,1 12,6 13,6 22,0 25,3 22,0 7 4 11 6 NE 1019,7 35 0 0,0
14.07.2018 04:00:00 16,2 12,5 13,7 22,9 25,6 22,0 6 3 15 8 NNE 1019,6 37 0 0,0
14.07.2018 03:00:00 17,0 12,5 16,7 23,6 25,9 22,0 9 5 14 8 N 1019,5 58 0 0,0
14.07.2018 02:00:00 17,2 12,2 17,4 24,1 26,3 21,9 6 3 11 6 NE 1019,6 46 0 0,0
14.07.2018 01:00:00 17,9 12,3 17,2 24,5 26,6 21,9 7 4 11 6 N 1019,9 52 0 0,0
14.07.2018 00:00:00 18,2 12,1 15,9 25,5 27,0 21,9 6 3 14 8 NNE 1019,8 58 0 0,0
13.07.2018 23:00:00 20,0 11,7 18,9 26,7 27,3 21,9 11 6 16 8 N 1019,5 63 0 0,0
13.07.2018 22:00:00 20,5 11,8 18,7 28,4 27,5 21,9 10 5 15 8 N 1019,1 61 0 0,0
13.07.2018 21:00:00 22,4 12,5 22,1 30,2 27,6 21,9 9 5 23 12 N 1018,7 54 8 0,0
13.07.2018 20:00:00 24,9 11,1 27,1 32,0 27,6 21,9 9 5 20 11 N 1018,1 67 48 0,0
13.07.2018 19:00:00 24,5 11,5 26,2 33,5 27,4 21,9 12 7 27 14 N 1018,4 70 56 0,0
13.07.2018 18:00:00 25,4 11,8 30,3 33,0 27,3 21,9 18 10 33 18 N 1018,7 61 21 0,0
13.07.2018 17:00:00 23,4 13,0 25,8 34,2 26,9 21,9 14 8 37 20 NNE 1019,1 60 6 0,0
13.07.2018 16:00:00 24,1 12,1 26,9 37,4 26,2 21,9 19 10 37 20 N 1018,8 64 30 0,0
13.07.2018 15:00:00 28,2 9,8 35,6 36,8 25,4 21,9 6 3 20 11 SSW 1018,0 60 54 0,0
13.07.2018 14:00:00 27,0 10,2 33,9 35,3 24,7 21,9 7 4 18 10 N 1018,6 52 60 0,0
13.07.2018 13:00:00 26,3 9,3 32,2 32,7 24,0 21,9 5 3 15 8 NE 1019,3 60 60 0,0

tt = temperature
td = dewpoint
tt 5cm = temperature 5cm
tt -5cm = temperature -5cm
tt -20cm = temperature -20cm
tt -100cm = temperature -100cm
ff = wind speed
fx = gusts
dd = wind direction
ppp = reduced air pressure
vv = visibility
sd = sunshine duration
rr = precipitation

Next stations